This demonstration page uses our WeatherBlox Daily Observations layout. Learn more.

Left ArrowRight Arrow

Hourly Observations for May 4, 2020

Temp ( °F °C ) Dew Point ( °F °C ) Humidity (%) Winds ( mph kmh ) Pressure ( in mb ) Visibility ( mi km ) Precip ( " mm )
12:53 am 00:53 Clear 50 10 46 7.8 86 86 NW 5 7 29.95 1014 10 16.0934 N/A
1:53 am 01:53 Clear 48 8.9 47 8.3 96 96 N N/A 29.96 1015 10 16.0934 N/A
2:53 am 02:53 Clear 46 7.8 44 6.7 93 93 N N/A 29.96 1014 10 16.0934 N/A
3:53 am 03:53 Clear 45 7.2 44 6.7 97 97 N N/A 29.97 1015 10 16.0934 N/A
4:53 am 04:53 Clear 44 6.7 42 5.6 93 93 N N/A 29.98 1015 10 16.0934 N/A
5:53 am 05:53 Clear 42 5.6 40 4.4 92 92 N N/A 29.99 1016 8 12.87472 N/A
6:53 am 06:53 Sunny with Mist and Fog 44 6.7 43 6.1 96 96 N N/A 30 1016 5 8.0467 N/A
7:53 am 07:53 Sunny 48 8.9 45 7.2 89 89 N N/A 30.04 1017 10 16.0934 N/A
8:53 am 08:53 Sunny 55 12.8 45 7.2 69 69 N 6 9 30.05 1018 10 16.0934 N/A
9:53 am 09:53 Sunny 59 15 45 7.2 60 60 VRB 5 7 30.06 1018 10 16.0934 N/A
10:53 am 10:53 Sunny 61 16.1 44 6.7 54 54 N 5 7 30.07 1018 10 16.0934 N/A
11:53 am 11:53 Sunny 63 17.2 43 6.1 48 48 N 7 11 30.08 1019 10 16.0934 N/A
12:53 pm 12:53 Sunny 64 17.8 46 7.8 52 52 N 9 15 30.08 1019 10 16.0934 N/A
1:53 pm 13:53 Sunny 65 18.3 44 6.7 47 47 NNW 8 13 30.03 1017 10 16.0934 N/A
2:53 pm 14:53 Sunny 66 18.9 43 6.1 43 43 N 9 15 30.03 1017 10 16.0934 N/A
3:53 pm 15:53 Sunny 66 18.9 44 6.7 45 45 VRB 5 7 30.02 1017 10 16.0934 N/A
4:53 pm 16:53 Sunny 65 18.3 42 5.6 43 43 NE 8 13 30.05 1018 10 16.0934 N/A
5:53 pm 17:53 Sunny 65 18.3 41 5 42 42 NE 5 7 30.04 1017 10 16.0934 N/A
6:53 pm 18:53 Sunny 64 17.8 45 7.2 50 50 NE 3 6 30.04 1017 10 16.0934 N/A
7:53 pm 19:53 Sunny 61 16.1 48 8.9 63 63 ENE 3 6 30.03 1017 10 16.0934 N/A
8:53 pm 20:53 Clear 60 15.6 48 8.9 65 65 NE 5 7 30.01 1016 10 16.0934 N/A
9:53 pm 21:53 Clear 59 15 42 5.6 54 54 E 10 17 29.95 1014 10 16.0934 N/A
10:53 pm 22:53 Clear 59 15 42 5.6 54 54 E 8 13 29.96 1015 10 16.0934 N/A
11:53 pm 23:53 Clear 58 14.4 42 5.6 56 56 ENE 6 9 29.97 1015 10 16.0934 N/A

Powered by AerisWeather